TimeEDT,TemperatureF,Dew PointF,Humidity,Sea Level PressureIn,VisibilityMPH,Wind Direction,Wind SpeedMPH,Gust SpeedMPH,PrecipitationIn,Events,Conditions,WindDirDegrees,DateUTC
12:52 AM,32.0,30.0,92,30.36,0.5,Calm,Calm,-,N/A,Fog,Fog,0,2012-10-09 04:52:00
1:04 AM,32.0,30.2,93,30.33,0.2,Calm,Calm,-,N/A,Fog,Fog,0,2012-10-09 05:04:00
1:27 AM,32.0,30.2,93,30.32,0.2,Calm,Calm,-,N/A,Fog,Fog,0,2012-10-09 05:27:00
1:30 AM,32.0,30.2,93,30.32,0.5,Calm,Calm,-,N/A,Fog,Fog,0,2012-10-09 05:30:00
1:40 AM,30.2,30.2,100,30.33,0.5,Calm,Calm,-,N/A,Fog,Light Freezing Fog,0,2012-10-09 05:40:00
1:52 AM,30.9,30.0,96,30.37,0.8,Calm,Calm,-,N/A,,Mist,0,2012-10-09 05:52:00
2:11 AM,32.0,30.2,93,30.33,0.2,Calm,Calm,-,N/A,Fog,Fog,0,2012-10-09 06:11:00
2:20 AM,32.0,30.2,93,30.33,0.2,Calm,Calm,-,N/A,Fog,Fog,0,2012-10-09 06:20:00
2:52 AM,30.9,30.0,96,30.36,0.2,Calm,Calm,-,N/A,Fog,Light Freezing Fog,0,2012-10-09 06:52:00
3:04 AM,30.2,30.2,100,30.33,0.8,Calm,Calm,-,N/A,,Mist,0,2012-10-09 07:04:00
3:52 AM,30.9,30.0,96,30.36,0.2,Calm,Calm,-,N/A,Fog,Light Freezing Fog,0,2012-10-09 07:52:00
4:21 AM,30.2,28.4,93,30.32,1.0,Calm,Calm,-,N/A,,Mist,0,2012-10-09 08:21:00
4:28 AM,30.2,28.4,93,30.32,2.0,Calm,Calm,-,N/A,,Overcast,0,2012-10-09 08:28:00
4:36 AM,30.2,28.4,93,30.33,10.0,Calm,Calm,-,N/A,,Overcast,0,2012-10-09 08:36:00
4:52 AM,30.9,30.0,96,30.37,3.0,Calm,Calm,-,N/A,,Overcast,0,2012-10-09 08:52:00
4:59 AM,30.2,30.2,100,30.33,2.0,Calm,Calm,-,N/A,,Overcast,0,2012-10-09 08:59:00
5:10 AM,30.2,30.2,100,30.33,3.0,Calm,Calm,-,N/A,,Overcast,0,2012-10-09 09:10:00
5:14 AM,30.2,30.2,100,30.33,1.8,Calm,Calm,-,N/A,,Overcast,0,2012-10-09 09:14:00
5:21 AM,30.2,30.2,100,30.33,0.8,Calm,Calm,-,N/A,,Overcast,0,2012-10-09 09:21:00
5:43 AM,30.2,30.2,100,30.33,1.5,Calm,Calm,-,N/A,,Overcast,0,2012-10-09 09:43:00
5:50 AM,32.0,30.2,93,30.33,3.0,Calm,Calm,-,N/A,,Overcast,0,2012-10-09 09:50:00
5:51 AM,32.0,30.0,92,30.37,3.0,Calm,Calm,-,N/A,,Overcast,0,2012-10-09 09:51:00
7:25 AM,33.8,32.0,93,30.33,4.0,Calm,Calm,-,0.00,Rain,Light Freezing Rain,0,2012-10-09 11:25:00
7:52 AM,33.1,32.0,96,30.37,9.0,Calm,Calm,-,0.00,Rain,Light Freezing Rain,0,2012-10-09 11:52:00
7:57 AM,33.8,33.8,100,30.33,10.0,Calm,Calm,-,N/A,,Overcast,0,2012-10-09 11:57:00
8:13 AM,33.8,33.8,100,30.33,10.0,Calm,Calm,-,N/A,,Overcast,0,2012-10-09 12:13:00
8:30 AM,33.8,33.8,100,30.33,10.0,Calm,Calm,-,N/A,,Overcast,0,2012-10-09 12:30:00
8:52 AM,36.0,34.0,93,30.37,10.0,North,3.5,-,N/A,,Overcast,10,2012-10-09 12:52:00
9:52 AM,41.0,37.9,89,30.36,10.0,Calm,Calm,-,N/A,,Overcast,0,2012-10-09 13:52:00
10:52 AM,46.9,39.0,74,30.35,10.0,Calm,Calm,-,N/A,,Mostly Cloudy,0,2012-10-09 14:52:00
11:42 AM,51.8,39.2,62,30.30,10.0,SE,11.5,19.6,N/A,,Overcast,140,2012-10-09 15:42:00
11:52 AM,52.0,39.9,63,30.33,10.0,South,8.1,-,N/A,,Mostly Cloudy,170,2012-10-09 15:52:00
12:52 PM,53.1,39.0,59,30.30,10.0,SSE,6.9,-,N/A,,Scattered Clouds,150,2012-10-09 16:52:00
1:52 PM,55.0,37.9,53,30.27,10.0,SE,13.8,23.0,N/A,,Partly Cloudy,140,2012-10-09 17:52:00
2:52 PM,53.1,37.9,57,30.25,10.0,SSE,9.2,19.6,N/A,,Overcast,160,2012-10-09 18:52:00
3:52 PM,53.1,37.9,57,30.24,10.0,South,9.2,-,N/A,,Mostly Cloudy,170,2012-10-09 19:52:00
4:52 PM,50.0,39.0,66,30.23,10.0,SSE,9.2,-,N/A,,Clear,160,2012-10-09 20:52:00
5:52 PM,48.0,39.0,71,30.23,10.0,SSE,5.8,-,N/A,,Partly Cloudy,160,2012-10-09 21:52:00
6:52 PM,41.0,37.9,89,30.23,10.0,Calm,Calm,-,N/A,,Partly Cloudy,0,2012-10-09 22:52:00
7:52 PM,41.0,37.9,89,30.22,10.0,Calm,Calm,-,N/A,,Mostly Cloudy,0,2012-10-09 23:52:00
8:27 PM,44.6,39.2,81,30.18,10.0,Calm,Calm,-,N/A,,Overcast,0,2012-10-10 00:27:00
8:52 PM,41.0,37.9,89,30.22,10.0,Calm,Calm,-,N/A,,Overcast,0,2012-10-10 00:52:00
9:52 PM,44.1,39.9,85,30.20,10.0,SE,5.8,-,N/A,,Mostly Cloudy,140,2012-10-10 01:52:00
10:52 PM,39.9,37.0,89,30.19,10.0,Calm,Calm,-,N/A,,Mostly Cloudy,0,2012-10-10 02:52:00
11:52 PM,39.9,37.9,93,30.16,9.0,Calm,Calm,-,N/A,,Mostly Cloudy,0,2012-10-10 03:52:00